• Em Portugal
  • Lista de países
  • Para 7 dias
  • Temperatura da água
  • Mapas de satélite
  • Mapa do tempo
  • Widgets de tempo
  • user-avatar
    Iniciar Sessão

    Previsão horária em Retowo

    Hoje, 21 Agosto, Terça-feira

    Tempo Temperatura Precipitação Vento Pressão Humidade
    00:00 +17°C° 0 mm 4 m/s 756 mmHg 81%
    01:00 +16°C° 0 mm 3 m/s 757 mmHg 84%
    02:00 +16°C° 0 mm 3 m/s 757 mmHg 85%
    03:00 +14°C° 0 mm 3 m/s 757 mmHg 87%
    04:00 +14°C° 0 mm 3 m/s 757 mmHg 88%
    05:00 +16°C° 0 mm 3 m/s 758 mmHg 83%
    06:00 +17°C° 0 mm 4 m/s 758 mmHg 78%
    07:00 +18°C° 0 mm 4 m/s 759 mmHg 71%
    08:00 +19°C° 0 mm 4 m/s 759 mmHg 67%
    09:00 +20°C° 0 mm 4 m/s 759 mmHg 62%
    10:00 +20°C° 0 mm 3 m/s 759 mmHg 58%
    11:00 +21°C° 0 mm 3 m/s 759 mmHg 57%
    12:00 +21°C° 0 mm 3 m/s 760 mmHg 56%
    13:00 +21°C° 0 mm 3 m/s 760 mmHg 55%
    14:00 +21°C° 0 mm 3 m/s 760 mmHg 55%
    15:00 +21°C° 0 mm 3 m/s 760 mmHg 54%
    16:00 +21°C° 0 mm 3 m/s 760 mmHg 54%
    17:00 +20°C° 0 mm 2 m/s 760 mmHg 60%
    18:00 +18°C° 0 mm 2 m/s 760 mmHg 66%
    19:00 +17°C° 0 mm 2 m/s 760 mmHg 72%
    20:00 +16°C° 0 mm 1 m/s 760 mmHg 76%
    21:00 +15°C° 0 mm 1 m/s 760 mmHg 79%
    22:00 +14°C° 0 mm 1 m/s 761 mmHg 82%
    23:00 +14°C° 0 mm 1 m/s 761 mmHg 83%

    Amanhã, 22 Agosto, Quarta-feira

    Tempo Temperatura Precipitação Vento Pressão Humidade
    00:00 +14°C° 0 mm 1 m/s 761 mmHg 83%
    01:00 +13°C° 0 mm 1 m/s 761 mmHg 84%
    02:00 +13°C° 0 mm 2 m/s 761 mmHg 85%
    03:00 +13°C° 0 mm 2 m/s 761 mmHg 85%
    04:00 +13°C° 0 mm 2 m/s 761 mmHg 86%
    05:00 +14°C° 0 mm 2 m/s 761 mmHg 82%
    06:00 +15°C° 0 mm 2 m/s 761 mmHg 77%
    07:00 +16°C° 0 mm 2 m/s 761 mmHg 73%
    08:00 +18°C° 0 mm 2 m/s 761 mmHg 66%
    09:00 +20°C° 0 mm 2 m/s 761 mmHg 59%
    10:00 +23°C° 0 mm 2 m/s 761 mmHg 52%
    11:00 +24°C° 0 mm 2 m/s 761 mmHg 48%
    12:00 +25°C° 0 mm 2 m/s 760 mmHg 44%
    13:00 +26°C° 0 mm 2 m/s 760 mmHg 40%
    14:00 +26°C° 0 mm 2 m/s 759 mmHg 40%
    15:00 +26°C° 0 mm 2 m/s 759 mmHg 39%
    16:00 +26°C° 0 mm 2 m/s 759 mmHg 39%
    17:00 +25°C° 0 mm 2 m/s 758 mmHg 45%
    18:00 +23°C° 0 mm 2 m/s 758 mmHg 51%
    19:00 +21°C° 0 mm 1 m/s 758 mmHg 57%
    20:00 +19°C° 0 mm 2 m/s 758 mmHg 59%
    21:00 +19°C° 0 mm 2 m/s 758 mmHg 60%
    22:00 +18°C° 0 mm 2 m/s 758 mmHg 62%
    23:00 +18°C° 0 mm 3 m/s 757 mmHg 63%

    Depois de amanhã, 23 Agosto, Quinta-feira

    Tempo Temperatura Precipitação Vento Pressão Humidade
    00:00 +17°C° 0 mm 3 m/s 757 mmHg 65%
    01:00 +17°C° 0 mm 3 m/s 757 mmHg 67%
    02:00 +17°C° 0 mm 3 m/s 757 mmHg 69%
    03:00 +17°C° 0 mm 3 m/s 756 mmHg 71%
    04:00 +16°C° 0 mm 3 m/s 756 mmHg 72%
    05:00 +17°C° 0 mm 3 m/s 756 mmHg 70%
    06:00 +19°C° 0 mm 3 m/s 756 mmHg 68%
    07:00 +20°C° 0 mm 3 m/s 756 mmHg 65%
    08:00 +22°C° 0 mm 3 m/s 755 mmHg 60%
    09:00 +25°C° 0 mm 3 m/s 755 mmHg 54%
    10:00 +27°C° 0 mm 3 m/s 755 mmHg 49%
    11:00 +28°C° 0 mm 3 m/s 755 mmHg 48%
    12:00 +28°C° 0 mm 3 m/s 755 mmHg 46%
    13:00 +29°C° 0 mm 3 m/s 754 mmHg 45%
    14:00 +28°C° 0 mm 2 m/s 754 mmHg 47%
    15:00 +28°C° 0 mm 2 m/s 754 mmHg 49%
    16:00 +28°C° 0 mm 2 m/s 753 mmHg 52%
    17:00 +27°C° 0 mm 2 m/s 753 mmHg 55%
    18:00 +25°C° 0 mm 2 m/s 753 mmHg 59%
    19:00 +24°C° 0 mm 2 m/s 753 mmHg 63%
    20:00 +24°C° 0 mm 2 m/s 752 mmHg 64%
    21:00 +24°C° 0 mm 2 m/s 752 mmHg 65%
    22:00 +23°C° 0 mm 2 m/s 752 mmHg 65%
    23:00 +22°C° 0 mm 3 m/s 752 mmHg 66%

    24 Agosto, Sexta-feira

    Tempo Temperatura Precipitação Vento Pressão Humidade
    00:00 +22°C° 0 mm 3 m/s 751 mmHg 67%
    01:00 +22°C° 0 mm 3 m/s 751 mmHg 68%
    02:00 +21°C° 0,2 mm 3 m/s 751 mmHg 73%
    03:00 +20°C° 0,2 mm 3 m/s 750 mmHg 77%
    04:00 +20°C° 0,2 mm 3 m/s 750 mmHg 82%
    05:00 +20°C° 0,3 mm 3 m/s 750 mmHg 81%
    06:00 +21°C° 0,3 mm 3 m/s 749 mmHg 80%
    07:00 +22°C° 0,3 mm 3 m/s 749 mmHg 80%
    08:00 +24°C° 0,3 mm 3 m/s 749 mmHg 75%
    09:00 +25°C° 0,3 mm 3 m/s 749 mmHg 70%
    10:00 +27°C° 0,3 mm 3 m/s 749 mmHg 65%
    11:00 +26°C° 1 mm 3 m/s 749 mmHg 66%
    12:00 +26°C° 1 mm 3 m/s 749 mmHg 67%
    13:00 +26°C° 1 mm 3 m/s 749 mmHg 67%
    14:00 +25°C° 0,9 mm 3 m/s 749 mmHg 71%
    15:00 +23°C° 0,9 mm 4 m/s 749 mmHg 74%
    16:00 +22°C° 0,9 mm 4 m/s 749 mmHg 77%
    17:00 +21°C° 0,3 mm 3 m/s 749 mmHg 80%
    18:00 +20°C° 0,3 mm 3 m/s 749 mmHg 83%
    19:00 +19°C° 0,3 mm 3 m/s 749 mmHg 86%
    20:00 +18°C° 0 mm 3 m/s 749 mmHg 86%
    21:00 +18°C° 0 mm 3 m/s 749 mmHg 86%
    22:00 +17°C° 0 mm 3 m/s 750 mmHg 86%
    23:00 +17°C° 0,1 mm 3 m/s 750 mmHg 86%

    25 Agosto, Sábado

    Tempo Temperatura Precipitação Vento Pressão Humidade
    00:00 +17°C° 0,1 mm 3 m/s 750 mmHg 86%
    01:00 +17°C° 0,1 mm 3 m/s 750 mmHg 85%
    02:00 +16°C° 0,1 mm 3 m/s 751 mmHg 85%
    03:00 +16°C° 0,1 mm 3 m/s 751 mmHg 85%
    04:00 +14°C° 0,1 mm 3 m/s 751 mmHg 85%
    05:00 +14°C° 0,1 mm 4 m/s 751 mmHg 84%
    06:00 +14°C° 0,1 mm 4 m/s 752 mmHg 82%
    07:00 +14°C° 0,1 mm 4 m/s 752 mmHg 81%
    08:00 +15°C° 0 mm 4 m/s 752 mmHg 73%
    09:00 +17°C° 0 mm 4 m/s 752 mmHg 65%
    10:00 +18°C° 0 mm 4 m/s 753 mmHg 58%
    11:00 +19°C° 0 mm 4 m/s 753 mmHg 52%
    12:00 +19°C° 0 mm 4 m/s 753 mmHg 47%
    13:00 +20°C° 0 mm 4 m/s 753 mmHg 42%
    14:00 +20°C° 0 mm 3 m/s 753 mmHg 41%
    15:00 +20°C° 0 mm 3 m/s 752 mmHg 41%
    16:00 +20°C° 0 mm 2 m/s 752 mmHg 41%
    17:00 +19°C° 0 mm 2 m/s 752 mmHg 44%
    18:00 +19°C° 0 mm 1 m/s 752 mmHg 47%
    19:00 +18°C° 0 mm 1 m/s 753 mmHg 50%
    20:00 +18°C° 0 mm 1 m/s 753 mmHg 51%
    21:00 +16°C° 0 mm 1 m/s 753 mmHg 53%
    22:00 +16°C° 0 mm 2 m/s 753 mmHg 54%
    23:00 +16°C° 0 mm 2 m/s 753 mmHg 55%

    26 Agosto, Domingo

    Tempo Temperatura Precipitação Vento Pressão Humidade
    00:00 +15°C° 0 mm 2 m/s 753 mmHg 57%
    01:00 +15°C° 0 mm 2 m/s 753 mmHg 58%
    02:00 +15°C° 0 mm 2 m/s 753 mmHg 62%
    03:00 +15°C° 0 mm 2 m/s 753 mmHg 66%
    04:00 +13°C° 0 mm 3 m/s 753 mmHg 70%
    05:00 +13°C° 0,1 mm 3 m/s 754 mmHg 73%
    06:00 +13°C° 0,1 mm 3 m/s 754 mmHg 75%
    07:00 +14°C° 0,1 mm 3 m/s 754 mmHg 78%
    08:00 +14°C° 0,1 mm 3 m/s 754 mmHg 74%
    09:00 +16°C° 0,1 mm 3 m/s 754 mmHg 70%
    10:00 +17°C° 0,1 mm 3 m/s 755 mmHg 66%
    11:00 +18°C° 0,2 mm 3 m/s 755 mmHg 62%
    12:00 +19°C° 0,2 mm 3 m/s 754 mmHg 58%
    13:00 +19°C° 0,2 mm 3 m/s 754 mmHg 53%
    14:00 +19°C° 0,1 mm 3 m/s 754 mmHg 53%
    15:00 +19°C° 0,1 mm 3 m/s 754 mmHg 53%
    16:00 +19°C° 0,1 mm 3 m/s 754 mmHg 53%
    17:00 +18°C° 0,1 mm 3 m/s 754 mmHg 59%
    18:00 +16°C° 0,1 mm 3 m/s 755 mmHg 65%
    19:00 +15°C° 0,1 mm 2 m/s 755 mmHg 72%
    20:00 +14°C° 0 mm 2 m/s 755 mmHg 75%
    21:00 +14°C° 0 mm 2 m/s 755 mmHg 79%
    22:00 +13°C° 0 mm 2 m/s 755 mmHg 82%
    23:00 +13°C° 0 mm 2 m/s 755 mmHg 83%
    Mostrar mais